Location: Dampvalley
(47.9094°N, 6.1967°E)
Time: 18:37:28
(UTC+00:00)

MOS 1 Rocket - Pass Details

Date: 05 March 2021
Orbit: 615 x 829 km, 97.4° (Epoch: 15 April)

Event Time Altitude Azimuth Distance (km) Brightness Sun altitude
Rises 04:55:11 0° 175° (S) 2,886 6.5 -13.1°
Reaches altitude 10° 04:57:21 10° 179° (S) 1,998 5.6 -12.7°
Maximum altitude 05:01:38 61° 260° (W) 737 3.1 -12.0°
Drops below altitude 10° 05:06:09 10° 341° (NNW) 2,105 5.6 -11.2°
Sets 05:08:29 0° 345° (NNW) 3,056 6.5 -10.8°
